Date String (YYYY-MM-DD hh:mm:ss) UTC,Instrument flags,Ambient pressure (hPa),Sample flow (lpm),Bypass flow (lpm),Sample temperature (°C),Ambient temperature (°C),ASC tube jacket temperature (°C),LED temperature (°C),Box temperature (°C),Sample RH (%),Span deviation,Mass concentration (μg/m³),Mass concentration (μg/m³),Mass concentration (μg/m³)
DateTimeUTC,F1_M11,P_M11,Q1_M11,Q2_M11,T1_M11,T2_M11,T3_M11,T4_M11,T5_M11,U1_M11,ZSPAN_M11,X0_M11,X2_M11,X1_M11
2022-02-10 17:00:00,,0824.3,5.01,0.00,24.4,23.7,00.0,33.2,26.3,13.4,0000.0,0006.92,0002.78,0001.89
2022-02-10 17:01:00,,0824.2,4.99,0.00,24.4,23.8,00.0,33.2,26.3,12.7,0000.0,0006.83,0002.73,0001.87
2022-02-10 17:02:00,,0824.2,5.00,0.00,24.4,23.8,00.0,33.2,26.3,13.1,0000.0,0006.85,0002.66,0001.85
2022-02-10 17:03:00,,0824.3,5.00,0.00,24.5,23.8,00.0,33.2,26.4,12.2,0000.0,0006.62,0002.53,0001.80
2022-02-10 17:04:00,,0824.2,5.00,0.00,24.5,23.8,00.0,33.3,26.4,12.6,0000.0,0006.19,0002.42,0001.73
2022-02-10 17:05:00,,0824.3,5.00,0.00,24.5,23.9,00.0,33.3,26.4,12.4,0000.0,0005.50,0002.29,0001.67
2022-02-10 17:06:00,,0824.2,5.01,0.00,24.5,23.9,00.0,33.3,26.4,12.3,0000.0,0005.16,0002.21,0001.62
2022-02-10 17:07:00,,0824.2,5.00,0.00,24.6,23.9,00.0,33.3,26.5,13.8,0000.0,0004.67,0002.21,0001.60
2022-02-10 17:08:00,,0824.2,5.01,0.00,24.6,23.9,00.0,33.3,26.5,13.6,0000.0,0004.98,0002.21,0001.59
2022-02-10 17:09:00,,0824.3,5.01,0.00,24.6,23.9,00.0,33.4,26.5,13.8,0000.0,0005.10,0002.14,0001.56
2022-02-10 17:10:00,,0824.3,4.99,0.00,24.6,24.0,00.0,33.4,26.5,14.2,0000.0,0006.80,0002.21,0001.58
2022-02-10 17:11:00,,0824.3,5.00,0.00,24.7,24.0,00.0,33.4,26.6,14.5,0000.0,0007.15,0002.31,0001.62
2022-02-10 17:12:00,,0824.3,5.01,0.00,24.7,24.0,00.0,33.4,26.6,14.5,0000.0,0008.04,0002.46,0001.70
2022-02-10 17:13:00,,0824.3,4.98,0.00,24.7,24.0,00.0,33.5,26.6,14.3,0000.0,0008.36,0002.61,0001.78
2022-02-10 17:14:00,,0824.3,5.02,0.00,24.7,24.0,00.0,33.5,26.6,14.5,0000.0,0008.63,0002.79,0001.87
2022-02-10 17:15:00,,0824.3,4.98,0.00,24.7,24.1,00.0,33.5,26.7,14.8,0000.0,0008.90,0003.04,0001.99
2022-02-10 17:16:00,,0824.3,5.01,0.00,24.8,24.1,00.0,33.5,26.7,14.4,0000.0,0009.22,0003.17,0002.10
2022-02-10 17:17:00,,0824.3,5.01,0.00,24.8,24.1,00.0,33.5,26.7,14.7,0000.0,0010.27,0003.33,0002.24
2022-02-10 17:18:00,,0824.3,4.99,0.00,24.8,24.1,00.0,33.6,26.7,14.7,0000.0,0010.63,0003.45,0002.36
2022-02-10 17:19:00,,0824.3,5.01,0.00,24.8,24.1,00.0,33.6,26.7,14.6,0000.0,0011.22,0003.53,0002.45
2022-02-10 17:20:00,,0824.3,4.99,0.00,24.8,24.1,00.0,33.6,26.8,14.8,0000.0,0012.12,0003.64,0002.56
2022-02-10 17:21:00,,0824.2,5.01,0.00,24.9,24.2,00.0,33.6,26.8,14.6,0000.0,0012.88,0003.74,0002.66
2022-02-10 17:22:00,,0824.2,5.01,0.00,24.9,24.2,00.0,33.6,26.8,13.1,0000.0,0013.04,0003.78,0002.72
2022-02-10 17:23:00,,0824.3,4.99,0.00,24.9,24.2,00.0,33.7,26.8,11.7,0000.0,0012.49,0003.76,0002.67
2022-02-10 17:24:00,,0824.3,5.01,0.00,24.9,24.2,00.0,33.7,26.8,11.7,0000.0,0012.21,0003.73,0002.62
2022-02-10 17:25:00,,0824.3,4.99,0.00,24.9,24.2,00.0,33.7,26.8,13.7,0000.0,0012.43,0003.77,0002.63
2022-02-10 17:26:00,,0824.3,5.00,0.00,24.9,24.2,00.0,33.7,26.9,14.1,0000.0,0012.77,0003.80,0002.67
2022-02-10 17:27:00,,0824.4,5.01,0.00,25.0,24.2,00.0,33.8,26.9,14.0,0000.0,0012.83,0003.84,0002.71
2022-02-10 17:28:00,,0824.3,4.99,0.00,25.0,24.3,00.0,33.8,26.9,13.9,0000.0,0012.09,0003.83,0002.75
2022-02-10 17:29:00,,0824.3,5.01,0.00,25.0,24.3,00.0,33.8,26.9,13.6,0000.0,0012.00,0003.85,0002.76
2022-02-10 17:30:00,,0824.2,4.99,0.00,25.0,24.3,00.0,33.8,26.9,13.7,0000.0,0011.07,0003.80,0002.76
2022-02-10 17:31:00,,0824.3,4.99,0.00,25.0,24.3,00.0,33.8,27.0,13.5,0000.0,0010.04,0003.80,0002.77
2022-02-10 17:32:00,,0824.2,5.02,0.00,25.0,24.3,00.0,33.9,27.0,13.3,0000.0,0009.12,0003.73,0002.76
2022-02-10 17:33:00,,0824.2,4.98,0.00,25.1,24.3,00.0,33.9,27.0,12.6,0000.0,0010.03,0003.73,0002.76
2022-02-10 17:34:00,,0824.2,5.01,0.00,25.1,24.3,00.0,33.9,27.0,13.1,0000.0,0010.72,0003.78,0002.85
2022-02-10 17:35:00,,0824.3,5.01,0.00,25.1,24.3,00.0,33.9,27.0,13.1,0000.0,0010.78,0003.83,0002.96
2022-02-10 17:36:00,,0824.3,5.00,0.00,25.1,24.3,00.0,33.9,27.0,12.9,0000.0,0010.59,0003.81,0002.97
2022-02-10 17:37:00,,0824.3,5.00,0.00,25.1,24.4,00.0,33.9,27.0,13.0,0000.0,0010.10,0003.73,0002.92
2022-02-10 17:38:00,,0824.3,5.01,0.00,25.1,24.4,00.0,34.0,27.0,13.1,0000.0,0009.84,0003.70,0002.88
2022-02-10 17:39:00,,0824.3,4.99,0.00,25.1,24.4,00.0,34.0,27.0,12.6,0000.0,0009.93,0003.62,0002.81
2022-02-10 17:40:00,,0824.3,5.01,0.00,25.1,24.4,00.0,34.0,27.0,13.1,0000.0,0010.26,0003.51,0002.74
2022-02-10 17:41:00,,0824.3,5.00,0.00,25.2,24.4,00.0,34.0,27.0,13.5,0000.0,0010.38,0003.50,0002.71
2022-02-10 17:42:00,,0824.3,5.01,0.00,25.2,24.4,00.0,34.0,27.1,13.6,0000.0,0010.63,0003.46,0002.70
2022-02-10 17:43:00,,0824.3,4.99,0.00,25.2,24.4,00.0,34.0,27.1,13.5,0000.0,0010.58,0003.46,0002.71
2022-02-10 17:44:00,,0824.3,5.02,0.00,25.2,24.4,00.0,34.0,27.1,13.4,0000.0,0009.93,0003.46,0002.73
2022-02-10 17:45:00,,0824.3,4.99,0.00,25.2,24.5,00.0,34.0,27.1,13.0,0000.0,0009.44,0003.47,0002.76
2022-02-10 17:46:00,,0824.3,5.00,0.00,25.2,24.5,00.0,34.1,27.1,13.2,0000.0,0009.45,0003.47,0002.77
2022-02-10 17:47:00,,0824.3,5.01,0.00,25.2,24.5,00.0,34.1,27.1,13.2,0000.0,0009.41,0003.48,0002.82
2022-02-10 17:48:00,,0824.3,4.99,0.00,25.3,24.5,00.0,34.1,27.1,13.1,0000.0,0009.88,0003.53,0002.89
2022-02-10 17:49:00,,0824.3,5.01,0.00,25.3,24.5,00.0,34.1,27.1,12.9,0000.0,0010.42,0003.55,0002.96
2022-02-10 17:50:00,,0824.4,4.99,0.00,25.3,24.5,00.0,34.1,27.2,12.9,0000.0,0010.36,0003.61,0003.04
2022-02-10 17:51:00,,0824.4,5.00,0.00,25.3,24.5,00.0,34.1,27.2,12.5,0000.0,0009.86,0003.67,0003.12
2022-02-10 17:52:00,,0824.4,5.01,0.00,25.3,24.5,00.0,34.1,27.2,12.5,0000.0,0009.83,0003.70,0003.15
2022-02-10 17:53:00,,0824.4,4.99,0.00,25.3,24.5,00.0,34.2,27.2,12.6,0000.0,0009.41,0003.73,0003.17
2022-02-10 17:54:00,,0824.5,5.01,0.00,25.3,24.5,00.0,34.2,27.2,12.5,0000.0,0008.85,0003.75,0003.19
2022-02-10 17:55:00,,0824.6,5.02,0.00,25.3,24.5,00.0,34.2,27.2,12.5,0000.0,0008.56,0003.77,0003.21
2022-02-10 17:56:00,,0824.6,4.98,0.00,25.3,24.6,00.0,34.2,27.2,12.4,0000.0,0008.53,0003.75,0003.22
2022-02-10 17:57:00,,0824.6,4.99,0.00,25.3,24.6,00.0,34.2,27.2,12.4,0000.0,0008.53,0003.78,0003.25
2022-02-10 17:58:00,,0824.6,5.01,0.00,25.3,24.6,00.0,34.2,27.2,12.2,0000.0,0008.64,0003.84,0003.29
2022-02-10 17:59:00,,0824.6,5.00,0.00,25.4,24.6,00.0,34.2,27.2,12.1,0000.0,0008.24,0003.84,0003.32
